Flag for France Weather past 2 weeks in Nîmes, France

46 °F

Passing clouds.

Feels Like: 40 °F
Forecast: 33 / 51 °F
Wind: 14 mph from North

Location: Nimes / Garons

Current Time: Nov 26, 2015 at 9:49:49 AM

Latest Report: Nov 26, 2015 at 9:00 AM

Visibility: N/A

Pressure: 29.89 "Hg

Humidity: 62%

Dew point: 34 °F

Location of NîmesLocation

Historic Weather in Nîmes — Graph


Nîmes temperature yesterday

Maximum temperature yesterday: 50 °F (at 1:30 PM)
Minimum temperature yesterday: 36 °F (at 8:00 AM)
Average temperature yesterday: 42 °F

Past Weeks' High & Low Weather Summary

High75 °F (Nov 15, 1:30 PM)100% (Nov 12, 7:00 AM)30.42 "Hg (Nov 12, 7:00 AM)
Low34 °F (Nov 24, 7:00 AM)34% (Nov 15, 9:30 AM)29.53 "Hg (Nov 21, 4:30 AM)
Average53 °F66%30.11 "Hg
* Reported Nov 11 8:00 AM — Nov 26 8:30 AM, Nîmes, Weather by CustomWeather, © 2015

Note: Actual official high and low records may vary slightly from our data, if they occured in-between our weather recording intervals... More about our weather records


Nîmes weather history for previous 24 hours

Time TempWeatherWind HumidityBarometerVisibility
8:30 AM
Thu, Nov 26
46 °FSunny.17 mph62%29.89 "Hg10 mi
8:00 AM43 °FQuite cool.10 mph71%29.86 "HgN/A
7:30 AM43 °FPassing clouds.12 mph71%29.86 "HgN/A
7:00 AM43 °FQuite cool.10 mph71%29.86 "HgN/A
6:00 AM41 °FClear.9 mph81%29.83 "Hg10 mi
5:30 AM41 °FClear.9 mph81%29.83 "Hg10 mi
4:30 AM45 °FPartly cloudy.14 mph76%29.83 "HgN/A
4:00 AM45 °FPassing clouds.8 mph76%29.83 "HgN/A
3:30 AM43 °FPassing clouds.3 mph81%29.80 "HgN/A
3:00 AM45 °FPassing clouds.5 mph81%29.80 "HgN/A
2:30 AM45 °FClear.8 mph81%29.80 "Hg10 mi
2:00 AM45 °FClear.10 mph81%29.77 "Hg10 mi
1:30 AM45 °FClear.9 mph81%29.77 "Hg10 mi
1:00 AM43 °FPartly cloudy.12 mph87%29.77 "HgN/A
12:00 AM39 °FClear.3 mph87%29.77 "Hg10 mi
11:30 PM
Wed, Nov 25
43 °FClear.6 mph81%29.77 "Hg10 mi
11:00 PM41 °FClear.7 mph87%29.77 "Hg10 mi
10:30 PM41 °FClear.2 mph87%29.77 "Hg10 mi
10:00 PM41 °FClear.2 mph93%29.80 "Hg10 mi
9:30 PM41 °FPassing clouds.3 mph93%29.80 "HgN/A
9:00 PM43 °FClear.5 mph87%29.80 "Hg10 mi
8:30 PM41 °FClear.5 mph93%29.80 "Hg10 mi
8:00 PM43 °FClear.3 mph87%29.80 "Hg10 mi
7:30 PM45 °FClear.5 mph87%29.80 "Hg10 mi
7:00 PM46 °FClear.3 mph82%29.80 "Hg10 mi
6:30 PM48 °FMostly cloudy.6 mph82%29.80 "HgN/A
6:00 PM48 °FPassing clouds.3 mph82%29.80 "HgN/A
5:30 PM48 °FClear.No wind82%29.80 "Hg10 mi
5:00 PM48 °FSunny.No wind82%29.80 "Hg10 mi
4:30 PM48 °FSunny.1 mph87%29.80 "Hg10 mi
4:00 PM50 °FSunny.2 mph82%29.80 "Hg10 mi
3:30 PM50 °FSunny.2 mph82%29.80 "Hg10 mi
3:00 PM50 °FSunny.1 mph82%29.83 "Hg10 mi
2:30 PM50 °FSunny.No wind76%29.83 "Hg10 mi
2:00 PM50 °FSunny.2 mph76%29.86 "Hg10 mi
1:30 PM50 °FSunny.No wind76%29.86 "Hg10 mi
1:00 PM46 °FSunny.No wind82%29.89 "Hg10 mi
12:30 PM45 °FLight rain. Broken clouds.No wind87%29.89 "Hg6 mi
12:00 PM43 °FLight rain. Mostly cloudy.2 mph93%29.89 "HgN/A
11:30 AM43 °FLight rain. Cloudy.2 mph87%29.92 "HgN/A
11:00 AM43 °FLight rain. Clear.2 mph81%29.92 "HgN/A
10:30 AM41 °FLight rain. Clear.3 mph81%29.92 "HgN/A
10:00 AM41 °FSunny.1 mph81%29.95 "Hg10 mi
9:30 AM39 °FSunny.1 mph87%29.95 "Hg10 mi
9:00 AM39 °FSunny.2 mph87%29.95 "Hg10 mi
Weather by CustomWeather, © 2015

See weather overviewHow to use our weather pages